Flag for Germany Weather past 2 weeks in Wismar, Mecklenburg-Western Pomerania, Germany

Now
65 °F

Passing clouds.


Feels Like: 65 °F
Forecast: 60 / 82 °F
Wind: 5 mph from Southeast

Location: Schwerin

Current Time: Jul 2, 2015 at 1:15:03 AM

Latest Report: Jul 2, 2015 at 1:00 AM


Visibility: 22 mi

Pressure: 30.25 "Hg

Humidity: 73%

Dew point: 56 °F

Location of WismarLocation

Historic Weather in Wismar — Graph

°F

Wismar temperature yesterday

Maximum temperature yesterday: 79 °F (at 6:00 PM)
Minimum temperature yesterday: 54 °F (at 6:00 AM)
Average temperature yesterday: 68 °F

Past Weeks' High & Low Weather Summary

 TemperatureHumidityPressure
High79 °F (Jul 1, 6:00 PM)98% (Jun 22, 4:00 AM)30.27 "Hg (Jun 22, 4:00 AM)
Low43 °F (Jun 17, 5:00 AM)35% (Jul 1, 6:00 PM)29.63 "Hg (Jun 23, 3:00 AM)
Average59 °F74%30.02 "Hg
* Reported Midnight between Jun 16 and Jun 17 — Midnight between Jul 1 and Jul 2, Wismar, Weather by CustomWeather, © 2015

Note: Actual official high and low records may vary slightly from our data, if they occured in-between our weather recording intervals... More about our weather records

Advertising

Wismar weather history for previous 24 hours

 ConditionsComfort  
Time TempWeatherWind HumidityBarometerVisibility
12:00 AM
Thu, Jul 2
67 °FPassing clouds.3 mph72%30.24 "Hg22 mi
11:00 PM
Wed, Jul 1
70 °FPassing clouds.3 mph57%30.23 "Hg25 mi
10:00 PM72 °FOvercast.5 mph47%30.22 "Hg31 mi
9:00 PM75 °FPartly sunny.5 mph41%30.20 "Hg25 mi
8:00 PM77 °FPartly sunny.5 mph39%30.20 "Hg28 mi
7:00 PM78 °FOvercast.5 mph37%30.20 "Hg19 mi
6:00 PM79 °FOvercast.5 mph35%30.21 "Hg34 mi
4:00 PM79 °FScattered clouds.5 mph37%30.22 "Hg15 mi
3:00 PM78 °FPassing clouds.5 mph40%30.23 "Hg25 mi
2:00 PM76 °FPartly sunny.3 mph41%30.24 "Hg25 mi
1:00 PM74 °FPartly sunny.3 mph41%30.25 "Hg22 mi
12:00 PM73 °FScattered clouds.2 mph45%30.26 "Hg25 mi
10:00 AM68 °FOvercast.3 mph55%30.27 "Hg22 mi
9:00 AM66 °FPartly sunny.2 mph58%30.27 "Hg17 mi
8:00 AM63 °FOvercast.2 mph67%30.26 "Hg16 mi
7:00 AM60 °FPartly sunny.2 mph78%30.26 "Hg22 mi
6:00 AM54 °FPassing clouds.1 mph97%30.26 "Hg9 mi
4:00 AM54 °FPassing clouds.1 mph96%30.24 "Hg12 mi
3:00 AM54 °FPassing clouds.1 mph93%30.24 "Hg18 mi
2:00 AM55 °FPassing clouds.2 mph91%30.24 "Hg14 mi
1:00 AM56 °FPassing clouds.2 mph88%30.24 "Hg8 mi
Weather by CustomWeather, © 2015

See weather overviewHow to use our weather pages